Time,TemperatureF,DewpointF,PressureIn,WindDirection,WindDirectionDegrees,WindSpeedMPH,WindSpeedGustMPH,Humidity,HourlyPrecipIn,Conditions,Clouds,dailyrainin,SolarRadiationWatts/m^2,SoftwareType,DateUTC
2013-09-16 00:44:00,79.0,63.0,-100.00,East,98,5.0,6.0,59,0.00,,,0.00,0.000000,,2013-09-16 05:44:00,
2013-09-16 00:53:00,79.0,63.0,-100.00,East,98,5.0,6.0,59,0.00,,,0.00,0.000000,,2013-09-16 05:53:00,
2013-09-16 01:03:00,79.0,63.0,-100.00,East,98,5.0,6.0,59,0.00,,,0.00,0.000000,,2013-09-16 06:03:00,
2013-09-16 01:52:00,78.0,63.0,-100.00,ESE,102,4.0,6.0,60,0.00,,,0.00,0.000000,,2013-09-16 06:52:00,
2013-09-16 02:02:00,78.0,63.0,-100.00,ESE,102,4.0,6.0,60,0.00,,,0.00,0.000000,,2013-09-16 07:02:00,
2013-09-16 02:43:00,78.0,63.0,-100.00,East,99,5.0,8.0,61,0.00,,,0.00,0.000000,,2013-09-16 07:43:00,
2013-09-16 02:52:00,78.0,63.0,-100.00,East,99,5.0,8.0,61,0.00,,,0.00,0.000000,,2013-09-16 07:52:00,
2013-09-16 03:02:00,78.0,63.0,-100.00,East,99,5.0,8.0,61,0.00,,,0.00,0.000000,,2013-09-16 08:02:00,
2013-09-16 03:52:00,77.0,64.0,-100.00,ESE,121,2.0,7.0,64,0.00,,,0.00,0.000000,,2013-09-16 08:52:00,
2013-09-16 04:02:00,77.0,64.0,-100.00,ESE,121,2.0,7.0,64,0.00,,,0.00,0.000000,,2013-09-16 09:02:00,
2013-09-16 05:53:00,76.0,65.0,-100.00,East,85,2.0,6.0,68,-99.99,,,0.00,0.000000,,2013-09-16 10:53:00,
2013-09-16 06:02:00,76.0,65.0,-100.00,East,85,2.0,6.0,68,-99.99,,,0.00,0.000000,,2013-09-16 11:02:00,
2013-09-16 06:52:00,75.0,64.0,-100.00,ESE,106,2.0,5.0,69,0.00,,,0.00,0.000000,,2013-09-16 11:52:00,
2013-09-16 07:01:00,75.0,64.0,-100.00,ESE,106,2.0,5.0,69,0.00,,,0.00,0.000000,,2013-09-16 12:01:00,
2013-09-16 07:52:00,74.0,64.0,-100.00,ESE,121,2.0,4.0,72,0.00,,,0.00,0.000000,,2013-09-16 12:52:00,
2013-09-16 08:02:00,74.0,64.0,-100.00,ESE,121,2.0,4.0,72,0.00,,,0.00,0.000000,,2013-09-16 13:02:00,
2013-09-16 08:42:00,75.0,66.0,-100.00,East,95,4.0,8.0,73,-99.99,,,0.00,30.000000,,2013-09-16 13:42:00,
2013-09-16 08:52:00,75.0,66.0,-100.00,East,95,4.0,8.0,73,-99.99,,,0.00,30.000000,,2013-09-16 13:52:00,
2013-09-16 09:02:00,75.0,66.0,-100.00,East,95,4.0,8.0,73,-99.99,,,0.00,30.000000,,2013-09-16 14:02:00,
2013-09-16 09:42:00,79.0,68.0,-100.00,SE,132,6.0,9.0,68,0.00,,,0.00,225.000000,,2013-09-16 14:42:00,
2013-09-16 09:52:00,79.0,68.0,-100.00,SE,132,6.0,9.0,68,0.00,,,0.00,225.000000,,2013-09-16 14:52:00,
2013-09-16 10:02:00,79.0,68.0,-100.00,SE,132,6.0,9.0,68,0.00,,,0.00,225.000000,,2013-09-16 15:02:00,
2013-09-16 10:43:00,84.0,69.0,-100.00,SE,143,5.0,9.0,61,0.00,,,0.00,460.000000,,2013-09-16 15:43:00,
2013-09-16 10:53:00,84.0,69.0,-100.00,SE,143,5.0,9.0,61,0.00,,,0.00,460.000000,,2013-09-16 15:53:00,
2013-09-16 11:03:00,84.0,69.0,-100.00,SE,143,5.0,9.0,61,0.00,,,0.00,460.000000,,2013-09-16 16:03:00,
2013-09-16 11:43:00,86.0,69.0,-100.00,ESE,113,5.0,11.0,58,0.00,,,0.00,542.000000,,2013-09-16 16:43:00,
2013-09-16 11:52:00,86.0,69.0,-100.00,ESE,113,5.0,11.0,58,0.00,,,0.00,542.000000,,2013-09-16 16:52:00,
2013-09-16 12:03:00,86.0,69.0,-100.00,ESE,113,5.0,11.0,58,0.00,,,0.00,542.000000,,2013-09-16 17:03:00,
2013-09-16 12:43:00,87.0,65.0,-100.00,East,93,7.0,13.0,48,0.00,,,0.00,699.000000,,2013-09-16 17:43:00,
2013-09-16 12:53:00,87.0,65.0,-100.00,East,93,7.0,13.0,48,0.00,,,0.00,699.000000,,2013-09-16 17:53:00,
2013-09-16 13:02:00,87.0,65.0,-100.00,East,93,7.0,13.0,48,0.00,,,0.00,699.000000,,2013-09-16 18:02:00,
2013-09-16 13:42:00,89.0,66.0,-100.00,ENE,74,9.0,16.0,47,0.00,,,-99.99,669.000000,,2013-09-16 18:42:00,
2013-09-16 13:52:00,89.0,66.0,-100.00,ENE,74,9.0,16.0,47,0.00,,,-99.99,669.000000,,2013-09-16 18:52:00,
2013-09-16 14:01:00,89.0,66.0,-100.00,ENE,74,9.0,16.0,47,0.00,,,-99.99,669.000000,,2013-09-16 19:01:00,
2013-09-16 14:42:00,92.0,66.0,-100.00,ESE,107,10.0,21.0,42,0.00,,,0.00,873.000000,,2013-09-16 19:42:00,
2013-09-16 14:53:00,92.0,66.0,-100.00,ESE,107,10.0,21.0,42,0.00,,,0.00,873.000000,,2013-09-16 19:53:00,
2013-09-16 15:03:00,92.0,66.0,-100.00,ESE,107,10.0,21.0,42,0.00,,,0.00,873.000000,,2013-09-16 20:03:00,
2013-09-16 15:43:00,92.0,63.0,-100.00,ESE,107,10.0,22.0,38,0.00,,,0.00,677.000000,,2013-09-16 20:43:00,
2013-09-16 15:52:00,92.0,63.0,-100.00,ESE,107,10.0,22.0,38,0.00,,,0.00,677.000000,,2013-09-16 20:52:00,
2013-09-16 16:03:00,92.0,63.0,-100.00,ESE,107,10.0,22.0,38,0.00,,,0.00,677.000000,,2013-09-16 21:03:00,
2013-09-16 17:54:00,90.0,55.0,-100.00,SE,141,12.0,21.0,31,0.00,,,0.00,480.000000,,2013-09-16 22:54:00,
2013-09-16 18:02:00,90.0,55.0,-100.00,SE,141,12.0,21.0,31,0.00,,,0.00,480.000000,,2013-09-16 23:02:00,
2013-09-16 18:43:00,87.0,57.0,-100.00,SE,128,11.0,18.0,36,0.00,,,0.00,194.000000,,2013-09-16 23:43:00,
2013-09-16 19:42:00,86.0,58.0,-100.00,SE,127,10.0,16.0,39,0.00,,,0.00,71.000000,,2013-09-17 00:42:00,